Location: Puketoi
(40.5833°S, 176.0167°E)
Time: 14:15:21
(UTC+00:00)

Cosmos 2251 Rocket - Pass Details

Date: 08 February 2023
Orbit: 764 x 790 km, 74.0° (Epoch: 31 March)

Event Time Altitude Azimuth Distance (km) Brightness Sun altitude
Exits shadow 16:26:32 - 344° (NNW) 2,545 5.8 -12.1°
Reaches altitude 10° 16:27:07 10° 344° (NNW) 2,314 5.6 -12.0°
Maximum altitude 16:32:23 86° 71° (ENE) 784 3.6 -11.1°
Drops below altitude 10° 16:37:42 10° 160° (SSE) 2,335 6.8 -10.3°
Sets 16:40:06 0° 160° (SSE) 3,268 7.6 -9.9°
